| time (UTC) | temp C | wind direction | speed KPH | gust KPH | rain 1hr cm | rain 24hr cm | rain mn cm | humidity % | barometer mb |
| 20260505171555 | 0 | 163 | 14.5 | 25.7 | 0.00 | 0.00 | 0.00 | 97 | 1014.2 |
| 20260505170052 | 0 | 185 | 12.9 | 24.1 | 0.00 | 0.00 | 0.00 | 96 | 1014.3 |
| 20260505164551 | 0 | 130 | 12.9 | 22.5 | 0.00 | 0.00 | 0.00 | 95 | 1014.6 |
| 20260505163052 | 0 | 179 | 12.9 | 20.9 | 0.00 | 0.00 | 0.00 | 94 | 1014.6 |
| 20260505161551 | 0 | 173 | 11.3 | 22.5 | 0.00 | 0.00 | 0.00 | 95 | 1014.7 |
| 20260505153050 | 0 | 159 | 14.5 | 24.1 | 0.00 | 0.00 | 0.00 | 96 | 1015.0 |
| 20260505151551 | 0 | 163 | 12.9 | 22.5 | 0.00 | 0.00 | 0.00 | 94 | 1015.0 |
| 20260505124551 | 1 | 191 | 8.0 | 14.5 | 0.00 | 0.00 | 0.00 | 92 | 1014.9 |
| 20260505123055 | 1 | 203 | 6.4 | 11.3 | 0.00 | 0.00 | 0.00 | 92 | 1014.6 |
| 20260505121550 | 1 | 196 | 4.8 | 11.3 | 0.00 | 0.00 | 0.00 | 92 | 1014.6 |
| 20260505120104 | 1 | 200 | 1.6 | 4.8 | 0.00 | 0.00 | 0.00 | 92 | 1014.3 |
| 20260505114547 | 1 | 223 | 3.2 | 9.7 | 0.00 | 0.00 | 0.00 | 93 | 1014.6 |
| 20260505113049 | 1 | 178 | 4.8 | 12.9 | 0.00 | 0.00 | 0.00 | 93 | 1014.9 |
| 20260505111547 | 1 | 215 | 3.2 | 8.0 | 0.00 | 0.00 | 0.00 | 92 | 1014.9 |
| 20260505110108 | 1 | 151 | 4.8 | 19.3 | 0.00 | 0.00 | 0.00 | 90 | 1014.9 |
| 20260505101548 | 1 | 207 | 6.4 | 16.1 | 0.00 | 0.00 | 0.00 | 93 | 1015.1 |
| 20260505100049 | 1 | 207 | 8.0 | 19.3 | 0.00 | 0.00 | 0.00 | 92 | 1015.2 |
| 20260505094550 | 1 | 217 | 6.4 | 14.5 | 0.00 | 0.00 | 0.00 | 91 | 1015.2 |
| 20260505093053 | 2 | 153 | 6.4 | 14.5 | 0.00 | 0.00 | 0.00 | 90 | 1015.3 |
| 20260505091555 | 1 | 0 | 0.0 | 0.0 | 0.00 | 0.00 | 0.00 | 90 | 1015.5 |
| 20260505090051 | 1 | 0 | 0.0 | 0.0 | 0.00 | 0.00 | 0.00 | 89 | 1015.3 |
| 20260505084556 | 1 | 274 | 0.0 | 3.2 | 0.00 | 0.00 | 0.00 | 87 | 1015.4 |
| 20260505083105 | 2 | 0 | 0.0 | 4.8 | 0.00 | 0.00 | 0.00 | 87 | 1015.4 |
| 20260505081554 | 2 | 293 | 0.0 | 4.8 | 0.00 | 0.00 | 0.00 | 85 | 1015.8 |
| 20260505080100 | 2 | 306 | 4.8 | 8.0 | 0.00 | 0.00 | 0.00 | 85 | 1016.0 |
| 20260505074550 | 2 | 221 | 0.0 | 3.2 | 0.00 | 0.00 | 0.00 | 84 | 1015.9 |
| 20260505073057 | 2 | 0 | 1.6 | 6.4 | 0.00 | 0.00 | 0.00 | 84 | 1015.9 |
| 20260505071555 | 2 | 171 | 3.2 | 9.7 | 0.00 | 0.00 | 0.00 | 83 | 1016.0 |
| 20260505070053 | 2 | 305 | 1.6 | 9.7 | 0.00 | 0.00 | 0.00 | 83 | 1016.0 |
| 20260505064702 | 3 | 277 | 4.8 | 8.0 | 0.00 | 0.00 | 0.00 | 82 | 1016.1 |
| 20260505063053 | 3 | 190 | 3.2 | 11.3 | 0.00 | 0.00 | 0.00 | 81 | 1016.3 |
| 20260505061552 | 3 | 252 | 3.2 | 9.7 | 0.00 | 0.00 | 0.00 | 79 | 1016.4 |
| 20260505060050 | 3 | 300 | 3.2 | 11.3 | 0.00 | 0.00 | 0.00 | 78 | 1016.0 |
| 20260505054552 | 4 | 214 | 4.8 | 11.3 | 0.00 | 0.00 | 0.00 | 75 | 1016.1 |
| 20260505053057 | 4 | 0 | 0.0 | 3.2 | 0.00 | 0.00 | 0.00 | 74 | 1016.1 |
| 20260505051549 | 3 | 0 | 1.6 | 6.4 | 0.00 | 0.00 | 0.00 | 76 | 1016.1 |
| 20260505041556 | 3 | 20 | 8.0 | 14.5 | 0.00 | 0.00 | 0.00 | 84 | 1015.9 |
| 20260505034606 | 2 | 46 | 6.4 | 17.7 | 0.00 | 0.00 | 0.00 | 86 | 1015.8 |
| 20260505033051 | 2 | 43 | 9.7 | 16.1 | 0.00 | 0.00 | 0.00 | 88 | 1015.6 |
| 20260505031548 | 2 | 94 | 11.3 | 17.7 | 0.00 | 0.00 | 0.00 | 86 | 1015.5 |
| 20260505024610 | 3 | 355 | 8.0 | 24.1 | 0.00 | 0.00 | 0.00 | 82 | 1015.5 |
| 20260505023050 | 3 | 74 | 9.7 | 22.5 | 0.00 | 0.00 | 0.00 | 77 | 1015.4 |
| 20260505021550 | 4 | 49 | 8.0 | 17.7 | 0.00 | 0.00 | 0.00 | 75 | 1015.1 |
| 20260505014551 | 5 | 5 | 11.3 | 19.3 | 0.00 | 0.00 | 0.00 | 71 | 1015.4 |
| 20260505013050 | 6 | 88 | 4.8 | 17.7 | 0.00 | 0.00 | 0.00 | 64 | 1015.1 |
| 20260505011550 | 8 | 226 | 8.0 | 17.7 | 0.00 | 0.00 | 0.00 | 51 | 1014.8 |
| 20260505010107 | 8 | 209 | 6.4 | 16.1 | 0.00 | 0.00 | 0.00 | 50 | 1014.6 |
| 20260505004605 | 8 | 211 | 6.4 | 16.1 | 0.00 | 0.00 | 0.00 | 49 | 1014.6 |
| 20260505003058 | 9 | 246 | 4.8 | 19.3 | 0.00 | 0.00 | 0.00 | 49 | 1014.7 |
| 20260505001552 | 10 | 207 | 8.0 | 22.5 | 0.00 | 0.00 | 0.00 | 46 | 1014.5 |
| 20260505000104 | 10 | 195 | 12.9 | 24.1 | 0.00 | 0.00 | 0.00 | 43 | 1014.5 |
| 20260504234555 | 10 | 208 | 11.3 | 24.1 | 0.00 | 0.00 | 0.00 | 41 | 1014.6 |
| 20260504233051 | 10 | 215 | 8.0 | 24.1 | 0.00 | 0.00 | 0.00 | 43 | 1014.6 |
| 20260504231620 | 10 | 219 | 11.3 | 33.8 | 0.00 | 0.00 | 0.00 | 47 | 1014.5 |
| 20260504230053 | 10 | 257 | 12.9 | 32.2 | 0.00 | 0.00 | 0.00 | 47 | 1014.5 |
| 20260504224550 | 10 | 189 | 12.9 | 33.8 | 0.00 | 0.00 | 0.00 | 48 | 1014.6 |
| 20260504223054 | 10 | 197 | 17.7 | 38.6 | 0.00 | 0.00 | 0.00 | 47 | 1014.6 |
| 20260504221632 | 12 | 269 | 14.5 | 30.6 | 0.00 | 0.00 | 0.00 | 41 | 1014.5 |
| 20260504220057 | 11 | 220 | 16.1 | 30.6 | 0.00 | 0.00 | 0.00 | 40 | 1014.7 |
| 20260504214550 | 12 | 217 | 9.7 | 24.1 | 0.00 | 0.00 | 0.00 | 39 | 1015.0 |
| 20260504213059 | 12 | 209 | 9.7 | 35.4 | 0.00 | 0.00 | 0.00 | 36 | 1015.0 |
| 20260504211555 | 12 | 270 | 19.3 | 32.2 | 0.00 | 0.00 | 0.00 | 33 | 1015.0 |
| 20260504210054 | 13 | 207 | 16.1 | 29.0 | 0.00 | 0.00 | 0.00 | 35 | 1014.9 |
| 20260504204552 | 12 | 210 | 17.7 | 30.6 | 0.00 | 0.00 | 0.00 | 34 | 1015.2 |
| 20260504203053 | 11 | 182 | 3.2 | 16.1 | 0.00 | 0.00 | 0.00 | 40 | 1015.3 |
| 20260504201555 | 12 | 216 | 11.3 | 22.5 | 0.00 | 0.00 | 0.00 | 39 | 1015.8 |
| 20260504200055 | 12 | 187 | 8.0 | 20.9 | 0.00 | 0.00 | 0.00 | 41 | 1015.8 |
| 20260504194602 | 11 | 213 | 9.7 | 24.1 | 0.00 | 0.00 | 0.00 | 43 | 1015.9 |
| 20260504193050 | 10 | 253 | 6.4 | 27.4 | 0.00 | 0.00 | 0.00 | 47 | 1016.1 |
| 20260504191618 | 10 | 188 | 12.9 | 30.6 | 0.00 | 0.00 | 0.00 | 48 | 1016.4 |
| 20260504190053 | 10 | 225 | 19.3 | 43.5 | 0.00 | 0.00 | 0.00 | 48 | 1016.4 |
| 20260504184601 | 12 | 186 | 12.9 | 24.1 | 0.00 | 0.00 | 0.00 | 32 | 1016.0 |
| 20260504183050 | 12 | 311 | 16.1 | 30.6 | 0.00 | 0.00 | 0.00 | 33 | 1016.1 |
| 20260504181546 | 12 | 227 | 9.7 | 27.4 | 0.00 | 0.00 | 0.00 | 32 | 1016.2 |
| 20260504180051 | 12 | 259 | 14.5 | 29.0 | 0.00 | 0.00 | 0.00 | 34 | 1016.3 |
| 20260504174548 | 12 | 254 | 12.9 | 30.6 | 0.00 | 0.00 | 0.00 | 35 | 1016.6 |
| 20260504173047 | 11 | 176 | 12.9 | 30.6 | 0.00 | 0.00 | 0.00 | 35 | 1016.6 |